Creek Data

    Home     View Charts     View Raw Data     Messages

ID Distance Battery Voltage Battery Current Internal Temp Internal Humidity External Temp Solar Input rssi snr Time Stamp Record
63804 14.4 3.71 -5 38 48 39 0 -76 8 01/19/2026 06:30 AM 46548
63803 14.4 3.72 -5 38 48 38 0 -75 8 01/19/2026 06:15 AM 46547
63802 14.4 3.72 -5 38 48 38 0 -75 8 01/19/2026 06:15 AM 46547
63801 14.4 3.87 -5 37 48 38 0 -76 8 01/19/2026 06:00 AM 46546
63800 14.4 3.71 -5 37 48 38 0.1 -76 8 01/19/2026 05:45 AM 46545
63799 14.4 3.71 -5 37 48 38 0.1 -75 8 01/19/2026 05:30 AM 46544
63798 14.4 3.86 -5 37 48 38 0.1 -76 8 01/19/2026 05:15 AM 46543
63797 14.4 3.72 -5 36 48 38 0 -76 8 01/19/2026 05:00 AM 46542
63796 14.4 3.72 -5 36 48 37 0 -76 8 01/19/2026 04:45 AM 46541
63795 14.4 3.87 -5 35 49 36 0 -76 8 01/19/2026 04:30 AM 46540
63794 14.4 3.72 -5 34 49 36 0 -76 8 01/19/2026 04:15 AM 46539
63793 14.4 3.73 -5 34 49 35 0 -76 7 01/19/2026 04:00 AM 46538
63792 14.4 3.87 -5 34 49 35 0 -76 8 01/19/2026 03:45 AM 46537
63791 14.4 3.72 -5 34 49 35 0.1 -77 8 01/19/2026 03:30 AM 46536
63790 14.4 3.72 -5 34 49 36 0 -77 8 01/19/2026 03:15 AM 46535
63789 14.4 3.72 -5 35 49 35 0 -77 7 01/19/2026 03:00 AM 46534
63788 14.4 3.87 -5 35 49 36 0 -77 7 01/19/2026 02:45 AM 46533
63787 14.4 3.71 -5 35 50 36 0 -77 8 01/19/2026 02:30 AM 46532
63786 14.4 3.71 -5 37 49 37 0 -77 6 01/19/2026 02:00 AM 46530
63785 14.4 3.71 -5 38 49 38 0.1 -78 6 01/19/2026 01:45 AM 46529
63784 14.4 3.72 -5 38 49 39 0 -78 9 01/19/2026 01:30 AM 46528
63783 14.4 3.73 -5 37 49 38 0.1 -78 7 01/19/2026 01:15 AM 46527
63782 14.4 3.87 -5 37 49 38 0 -78 8 01/19/2026 01:00 AM 46526
63781 14.4 3.73 -5 37 49 38 0 -79 7 01/19/2026 12:45 AM 46525
63780 14.4 3.87 -5 37 49 38 0 -80 9 01/19/2026 12:30 AM 46524